QPF
0.03 0.03 0.03 0.03 0.05 0.05 0.04 0.03 0.02 0.01 0.01 0.01 0.02 0.03 0.03 0.03 0.03 0.03 0.02 0.03 0.04 0.04 0.03 0.03 0.04 0.04 0.04 0.04 0.05 0.05 0.04 0.03 0.03 0.04 0.04 0.05 0.06 0.06
0.04 0.03 0.02 0.02 0.04 0.05 0.04 0.04 0.03 0.03 0.02 0.02 0.02 0.04 0.04 0.03 0.03 0.02 0.01 0.03 0.03 0.03 0.03 0.04 0.04 0.05 0.05 0.04 0.05 0.05 0.05 0.04 0.03 0.02 0.02 0.03 0.03 0.04
0.06 0.04 0.03 0.05 0.04 0.05 0.05 0.05 0.05 0.05 0.03 0.02 0.02 0.03 0.04 0.04 0.04 0.03 0.02 0.02 0.02 0.03 0.03 0.04 0.04 0.05 0.05 0.05 0.05 0.04 0.05 0.05 0.04 0.04 0.03 0.03 0.04 0.04
0.06 0.05 0.05 0.05 0.04 0.05 0.05 0.05 0.04 0.05 0.04 0.04 0.03 0.03 0.04 0.05 0.04 0.03 0.03 0.03 0.02 0.02 0.02 0.03 0.04 0.04 0.05 0.05 0.05 0.05 0.05 0.05 0.06 0.06 0.06 0.07 0.07 0.06
0.08 0.06 0.04 0.06 0.05 0.06 0.07 0.06 0.04 0.03 0.02 0.02 0.02 0.02 0.03 0.06 0.05 0.04 0.04 0.03 0.03 0.02 0.03 0.03 0.03 0.04 0.05 0.06 0.06 0.06 0.06 0.07 0.09 0.11 0.11 0.09 0.08 0.08
0.09 0.09 0.06 0.05 0.04 0.05 0.06 0.04 0.03 0.03 0.02 0.02 0.01 0.01 0.02 0.03 0.04 0.03 0.03 0.03 0.02 0.01 0.02 0.03 0.04 0.04 0.04 0.04 0.04 0.06 0.08 0.09 0.09 0.08 0.08 0.08 0.08 0.07
0.05 0.05 0.05 0.05 0.04 0.04 0.03 0.02 0.03 0.02 0.03 0.03 0.02 0.02 0.02 0.02 0.02 0.02 0.02 0.02 0.02 0.02 0.03 0.03 0.04 0.04 0.03 0.04 0.05 0.06 0.06 0.07 0.08 0.09 0.08 0.08 0.08 0.07
0.03 0.03 0.04 0.06 0.06 0.04 0.03 0.03 0.03 0.03 0.04 0.04 0.04 0.03 0.03 0.03 0.03 0.02 0.02 0.03 0.02 0.02 0.02 0.02 0.02 0.03 0.04 0.05 0.06 0.07 0.07 0.07 0.06 0.06 0.06 0.07 0.08 0.07
0.03 0.03 0.04 0.04 0.05 0.03 0.03 0.03 0.03 0.03 0.04 0.04 0.04 0.03 0.03 0.03 0.02 0.02 0.02 0.02 0.02 0.02 0.03 0.03 0.03 0.05 0.06 0.07 0.08 0.07 0.06 0.05 0.05 0.04 0.04 0.04 0.04 0.05
0.03 0.04 0.04 0.03 0.04 0.04 0.03 0.04 0.04 0.05 0.06 0.06 0.05 0.04 0.03 0.02 0.02 0.02 0.02 0.03 0.04 0.06 0.06 0.07 0.06 0.06 0.06 0.05 0.05 0.04 0.03 0.04 0.04 0.05 0.04 0.03 0.02 0.02
0.04 0.04 0.04 0.05 0.06 0.06 0.05 0.04 0.05 0.07 0.07 0.06 0.04 0.02 0.02 0.02 0.03 0.03 0.04 0.05 0.05 0.05 0.05 0.06 0.05 0.03 0.03 0.03 0.04 0.04 0.03 0.03 0.03 0.03 0.02 0.02 0.02 0.02
0.05 0.06 0.06 0.05 0.04 0.05 0.05 0.05 0.05 0.05 0.04 0.03 0.02 0.02 0.02 0.03 0.03 0.03 0.03 0.02 0.02 0.02 0.02 0.02 0.02 0.02 0.02 0.02 0.02 0.02 0.02 0.02 0.02 0.02 0.01 0.01 0.02 0.03
0.06 0.06 0.05 0.04 0.03 0.04 0.04 0.04 0.04 0.02 0.02 0.02 0.02 0.02 0.03 0.03 0.03 0.03 0.03 0.03 0.03 0.02 0.02 0.02 0.02 0.02 0.02 0.02 0.02 0.02 0.02 0.02 0.02 0.02 0.03 0.03 0.04 0.05
0.06 0.04 0.03 0.02 0.02 0.02 0.02 0.03 0.03 0.02 0.01 0.01 0.01 0.01 0.02 0.02 0.03 0.03 0.03 0.03 0.03 0.03 0.02 0.02 0.02 0.02 0.02 0.02 0.03 0.03 0.02 0.01 0.01 0.01 0.01 0.03 0.04 0.06
0.06 0.05 0.03 0.02 0.02 0.02 0.03 0.03 0.02 0.01 0.01 0.01 0.01 0.02 0.02 0.02 0.01 0.01 0.01 0.02 0.02 0.02 0.02 0.02 0.02 0.02 0.02 0.02 0.03 0.02 0.02 0.01 0.01 0.02 0.02 0.03 0.04 0.06
0.06 0.06 0.05 0.05 0.04 0.04 0.03 0.03 0.03 0.01 0.01 0.01 0.01 0.01 0.01 0.01 0.01 0.01 0.01 0.01 0.01 0.01 0.01 0.01 0.02 0.02 0.02 0.02 0.02 0.02 0.02 0.02 0.03 0.05 0.06 0.06 0.06 0.07
0.05 0.04 0.03 0.03 0.03 0.02 0.02 0.01 0.01 0.01 0.01 0.01 0.01 0.01 0.01 0.01 0.01 0.01 0.01 0.01 0.01 0.01 0.01 0.01 0.01 0.02 0.02 0.03 0.03 0.03 0.03 0.04 0.05 0.08 0.10 0.10 0.11 0.11
0.02 0.01 0.01 0.01 0.01 0.01 0.01 0.01 0.01 0.01 0.01 0.01 0.01 0.01 0.01 0.02 0.02 0.02 0.02 0.02 0.03 0.03 0.03 0.03 0.03 0.04 0.04 0.05 0.05 0.04 0.05 0.07 0.08 0.10 0.11 0.11 0.11 0.10
0.01 0.01 0.01 0.01 0.01 0.01 0.01 0.01 0.01 0.01 0.01 0.01 0.01 0.01 0.01 0.01 0.01 0.01 0.01 0.02 0.02 0.02 0.03 0.04 0.05 0.06 0.07 0.08 0.09 0.08 0.08 0.09 0.10 0.10 0.10 0.08 0.07 0.07
0.01 0.01 0.01 0.01 0.01 0.01 0.01 0.00 0.00 0.00 0.00 0.00 0.00 0.01 0.01 0.01 0.01 0.01 0.01 0.01 0.01 0.02 0.02 0.03 0.04 0.05 0.06 0.07 0.07 0.08 0.08 0.09 0.09 0.09 0.09 0.08 0.08 0.09
0.02 0.02 0.01 0.01 0.00 0.00 0.00 0.00 0.01 0.00 0.00 0.00 0.00 0.00 0.00 0.01 0.01 0.01 0.01 0.01 0.01 0.02 0.02 0.02 0.02 0.03 0.04 0.05 0.05 0.05 0.05 0.06 0.06 0.07 0.08 0.08 0.08 0.07
0.02 0.02 0.02 0.02 0.01 0.01 0.00 0.00 0.01 0.00 0.00 0.00 0.00 0.00 0.00 0.00 0.01 0.01 0.01 0.01 0.02 0.02 0.02 0.02 0.02 0.02 0.03 0.03 0.03 0.03 0.03 0.03 0.04 0.06 0.08 0.07 0.06 0.05
0.03 0.02 0.02 0.01 0.01 0.01 0.00 0.00 0.00 0.01 0.01 0.01 0.01 0.01 0.00 0.00 0.00 0.00 0.00 0.00 0.01 0.01 0.02 0.02 0.02 0.02 0.03 0.03 0.03 0.04 0.04 0.04 0.04 0.04 0.05 0.04 0.03 0.02
MSLP
1018.24 1018.61 1019.03 1019.47 1019.88 1020.22 1020.46 1020.58 1020.59 1020.50 1020.36 1020.19 1020.04 1019.94 1019.91 1019.95 1020.06 1020.22 1020.43 1020.66 1020.91 1021.17 1021.42 1021.67 1021.90 1022.11 1022.30 1022.46 1022.59 1022.68 1022.74 1022.78 1022.81 1022.84 1022.88 1022.92 1022.96 1022.99
1017.57 1017.93 1018.34 1018.76 1019.18 1019.54 1019.82 1020.00 1020.09 1020.09 1020.03 1019.94 1019.85 1019.79 1019.78 1019.82 1019.91 1020.04 1020.21 1020.41 1020.63 1020.86 1021.11 1021.35 1021.59 1021.82 1022.04 1022.23 1022.38 1022.52 1022.62 1022.71 1022.79 1022.87 1022.94 1023.03 1023.10 1023.16
1016.90 1017.24 1017.63 1018.05 1018.46 1018.85 1019.17 1019.41 1019.58 1019.68 1019.72 1019.73 1019.72 1019.72 1019.73 1019.78 1019.85 1019.95 1020.09 1020.24 1020.42 1020.62 1020.84 1021.08 1021.32 1021.56 1021.79 1022.00 1022.19 1022.36 1022.50 1022.63 1022.76 1022.89 1023.02 1023.15 1023.27 1023.38
1016.22 1016.56 1016.94 1017.34 1017.76 1018.16 1018.52 1018.83 1019.08 1019.28 1019.43 1019.54 1019.62 1019.69 1019.75 1019.81 1019.88 1019.95 1020.04 1020.16 1020.29 1020.46 1020.65 1020.86 1021.10 1021.34 1021.58 1021.81 1022.02 1022.21 1022.39 1022.56 1022.72 1022.90 1023.08 1023.27 1023.45 1023.61
1015.51 1015.85 1016.23 1016.63 1017.04 1017.46 1017.86 1018.23 1018.57 1018.87 1019.13 1019.35 1019.53 1019.68 1019.79 1019.88 1019.95 1020.01 1020.07 1020.14 1020.23 1020.36 1020.52 1020.72 1020.94 1021.18 1021.43 1021.66 1021.89 1022.10 1022.29 1022.49 1022.69 1022.90 1023.13 1023.37 1023.61 1023.84
1014.75 1015.10 1015.47 1015.87 1016.29 1016.72 1017.16 1017.59 1018.01 1018.41 1018.78 1019.10 1019.38 1019.61 1019.79 1019.92 1020.00 1020.06 1020.10 1020.15 1020.22 1020.32 1020.46 1020.65 1020.86 1021.10 1021.34 1021.59 1021.82 1022.04 1022.25 1022.46 1022.68 1022.92 1023.19 1023.47 1023.76 1024.05
1013.91 1014.27 1014.64 1015.04 1015.47 1015.92 1016.39 1016.87 1017.37 1017.85 1018.32 1018.75 1019.13 1019.45 1019.70 1019.88 1020.00 1020.07 1020.12 1020.16 1020.22 1020.31 1020.44 1020.62 1020.84 1021.08 1021.34 1021.59 1021.83 1022.05 1022.27 1022.49 1022.73 1022.98 1023.27 1023.59 1023.92 1024.25
1012.99 1013.35 1013.72 1014.12 1014.55 1015.02 1015.52 1016.06 1016.61 1017.18 1017.74 1018.27 1018.75 1019.16 1019.48 1019.73 1019.90 1020.01 1020.08 1020.13 1020.20 1020.30 1020.45 1020.64 1020.87 1021.13 1021.40 1021.67 1021.92 1022.16 1022.39 1022.61 1022.85 1023.12 1023.41 1023.74 1024.10 1024.46
1012.02 1012.37 1012.74 1013.13 1013.56 1014.04 1014.57 1015.15 1015.76 1016.40 1017.04 1017.66 1018.23 1018.73 1019.14 1019.46 1019.70 1019.86 1019.97 1020.06 1020.16 1020.28 1020.46 1020.67 1020.93 1021.22 1021.52 1021.82 1022.09 1022.35 1022.59 1022.83 1023.07 1023.33 1023.62 1023.95 1024.31 1024.68
1011.05 1011.38 1011.73 1012.12 1012.55 1013.04 1013.58 1014.19 1014.86 1015.56 1016.27 1016.97 1017.63 1018.22 1018.71 1019.11 1019.41 1019.64 1019.81 1019.94 1020.08 1020.25 1020.46 1020.72 1021.02 1021.35 1021.68 1022.02 1022.33 1022.62 1022.88 1023.13 1023.37 1023.63 1023.91 1024.23 1024.57 1024.93
1010.16 1010.45 1010.79 1011.16 1011.58 1012.08 1012.64 1013.27 1013.97 1014.72 1015.50 1016.27 1017.00 1017.66 1018.24 1018.72 1019.10 1019.39 1019.62 1019.81 1020.00 1020.21 1020.47 1020.77 1021.11 1021.48 1021.87 1022.25 1022.60 1022.93 1023.22 1023.48 1023.74 1023.99 1024.26 1024.55 1024.86 1025.20
1009.41 1009.68 1009.98 1010.34 1010.75 1011.24 1011.81 1012.46 1013.19 1013.97 1014.79 1015.62 1016.41 1017.14 1017.79 1018.34 1018.78 1019.14 1019.43 1019.68 1019.92 1020.17 1020.47 1020.81 1021.20 1021.62 1022.05 1022.48 1022.88 1023.24 1023.57 1023.86 1024.12 1024.38 1024.63 1024.90 1025.18 1025.49
1008.88 1009.10 1009.38 1009.72 1010.12 1010.61 1011.17 1011.83 1012.57 1013.37 1014.22 1015.08 1015.92 1016.71 1017.41 1018.01 1018.52 1018.93 1019.27 1019.56 1019.85 1020.14 1020.47 1020.85 1021.27 1021.73 1022.20 1022.67 1023.12 1023.53 1023.90 1024.22 1024.50 1024.76 1025.01 1025.25 1025.51 1025.78
1008.57 1008.77 1009.02 1009.34 1009.73 1010.20 1010.76 1011.41 1012.15 1012.96 1013.82 1014.70 1015.56 1016.38 1017.11 1017.76 1018.31 1018.77 1019.15 1019.48 1019.79 1020.12 1020.47 1020.87 1021.32 1021.81 1022.31 1022.82 1023.31 1023.76 1024.17 1024.52 1024.83 1025.10 1025.35 1025.58 1025.82 1026.06
1008.49 1008.67 1008.90 1009.20 1009.57 1010.03 1010.57 1011.21 1011.93 1012.73 1013.58 1014.46 1015.33 1016.15 1016.91 1017.59 1018.16 1018.65 1019.06 1019.42 1019.76 1020.10 1020.47 1020.89 1021.35 1021.85 1022.38 1022.92 1023.44 1023.93 1024.37 1024.75 1025.09 1025.38 1025.63 1025.87 1026.09 1026.31
1008.60 1008.76 1008.99 1009.27 1009.63 1010.07 1010.59 1011.20 1011.89 1012.66 1013.49 1014.34 1015.20 1016.02 1016.79 1017.47 1018.06 1018.56 1018.99 1019.37 1019.72 1020.08 1020.46 1020.88 1021.36 1021.87 1022.41 1022.97 1023.51 1024.03 1024.50 1024.91 1025.27 1025.58 1025.84 1026.08 1026.30 1026.50
1008.85 1009.01 1009.23 1009.50 1009.84 1010.26 1010.75 1011.32 1011.98 1012.71 1013.50 1014.32 1015.15 1015.95 1016.70 1017.38 1017.97 1018.48 1018.93 1019.32 1019.68 1020.05 1020.44 1020.87 1021.35 1021.87 1022.42 1022.98 1023.54 1024.07 1024.56 1025.00 1025.38 1025.70 1025.98 1026.21 1026.43 1026.62
1009.18 1009.35 1009.56 1009.83 1010.15 1010.54 1011.00 1011.53 1012.14 1012.83 1013.57 1014.35 1015.13 1015.90 1016.63 1017.29 1017.88 1018.40 1018.85 1019.25 1019.63 1020.01 1020.41 1020.85 1021.33 1021.85 1022.41 1022.98 1023.54 1024.08 1024.58 1025.03 1025.42 1025.75 1026.03 1026.26 1026.46 1026.63
1009.53 1009.71 1009.93 1010.18 1010.49 1010.85 1011.27 1011.77 1012.33 1012.96 1013.65 1014.38 1015.12 1015.85 1016.54 1017.19 1017.76 1018.28 1018.73 1019.15 1019.54 1019.94 1020.36 1020.81 1021.30 1021.83 1022.39 1022.96 1023.53 1024.07 1024.56 1025.01 1025.39 1025.72 1025.98 1026.20 1026.39 1026.54
1009.84 1010.03 1010.26 1010.51 1010.80 1011.13 1011.52 1011.97 1012.49 1013.08 1013.72 1014.39 1015.08 1015.77 1016.43 1017.04 1017.61 1018.12 1018.58 1019.01 1019.42 1019.84 1020.28 1020.75 1021.26 1021.80 1022.36 1022.93 1023.49 1024.02 1024.51 1024.93 1025.30 1025.60 1025.85 1026.04 1026.20 1026.32
1010.07 1010.28 1010.51 1010.75 1011.02 1011.34 1011.70 1012.12 1012.60 1013.14 1013.73 1014.36 1015.00 1015.64 1016.27 1016.86 1017.41 1017.91 1018.38 1018.82 1019.26 1019.71 1020.17 1020.66 1021.19 1021.74 1022.31 1022.87 1023.42 1023.93 1024.40 1024.80 1025.13 1025.40 1025.62 1025.78 1025.90 1025.98
1010.17 1010.40 1010.63 1010.87 1011.13 1011.43 1011.77 1012.17 1012.61 1013.12 1013.67 1014.25 1014.86 1015.46 1016.05 1016.62 1017.15 1017.65 1018.13 1018.59 1019.05 1019.52 1020.01 1020.53 1021.07 1021.64 1022.21 1022.76 1023.30 1023.79 1024.22 1024.58 1024.88 1025.12 1025.29 1025.41 1025.49 1025.54
1010.12 1010.36 1010.59 1010.84 1011.09 1011.38 1011.71 1012.09 1012.52 1013.00 1013.52 1014.08 1014.65 1015.22 1015.78 1016.33 1016.85 1017.35 1017.83 1018.30 1018.78 1019.28 1019.80 1020.34 1020.90 1021.47 1022.04 1022.59 1023.10 1023.56 1023.96 1024.29 1024.55 1024.74 1024.88 1024.96 1025.01 1025.03
Thickness
5733 5731 5729 5728 5727 5725 5723 5721 5716 5713 5715 5719 5721 5723 5723 5722 5722 5721 5720 5719 5718 5717 5716 5714 5713 5711 5710 5708 5706 5704 5702 5701 5699 5697 5696 5694 5692 5691
5731 5729 5728 5726 5725 5723 5721 5720 5718 5715 5712 5715 5716 5718 5718 5719 5718 5717 5717 5716 5715 5713 5712 5711 5710 5709 5707 5705 5703 5701 5699 5698 5696 5694 5692 5691 5689 5687
5728 5726 5725 5724 5722 5720 5718 5717 5715 5713 5710 5712 5713 5714 5714 5713 5713 5712 5712 5711 5710 5709 5708 5707 5706 5705 5703 5701 5699 5697 5696 5694 5691 5690 5688 5686 5684 5682
5725 5724 5722 5722 5719 5717 5715 5714 5712 5711 5708 5706 5707 5708 5708 5708 5707 5707 5706 5706 5705 5704 5703 5702 5701 5700 5698 5697 5695 5692 5691 5689 5686 5684 5682 5680 5678 5676
5722 5720 5719 5717 5715 5714 5712 5710 5709 5707 5705 5702 5701 5701 5701 5701 5701 5700 5700 5699 5699 5698 5697 5696 5695 5694 5692 5691 5689 5687 5685 5683 5680 5677 5675 5673 5671 5669
5719 5717 5715 5714 5712 5710 5709 5706 5704 5702 5700 5698 5696 5695 5694 5694 5694 5693 5692 5692 5691 5691 5690 5689 5688 5686 5685 5683 5682 5680 5678 5675 5673 5670 5667 5665 5662 5660
5714 5712 5711 5710 5709 5707 5705 5703 5700 5697 5695 5693 5690 5689 5688 5687 5686 5685 5684 5684 5684 5683 5682 5681 5679 5678 5676 5674 5673 5671 5669 5666 5664 5661 5659 5656 5653 5651
5709 5707 5706 5704 5703 5702 5700 5698 5696 5693 5690 5687 5684 5682 5681 5680 5679 5679 5677 5676 5675 5674 5672 5672 5670 5669 5667 5665 5663 5662 5659 5657 5654 5651 5649 5646 5644 5641
5704 5702 5700 5699 5697 5696 5694 5692 5689 5687 5685 5682 5679 5677 5675 5674 5673 5671 5669 5668 5666 5665 5663 5662 5661 5659 5656 5654 5653 5652 5649 5647 5644 5642 5639 5636 5633 5630
5698 5696 5694 5692 5691 5689 5687 5684 5682 5679 5677 5675 5672 5671 5670 5668 5666 5665 5662 5660 5659 5656 5653 5651 5650 5648 5646 5644 5642 5640 5638 5636 5633 5631 5628 5625 5622 5620
5690 5688 5686 5684 5682 5681 5680 5676 5673 5670 5668 5666 5664 5662 5661 5660 5659 5657 5654 5652 5650 5647 5643 5641 5639 5637 5635 5633 5631 5628 5626 5623 5621 5618 5616 5613 5610 5607
5681 5679 5676 5675 5673 5672 5670 5667 5664 5661 5659 5657 5655 5654 5652 5651 5649 5646 5644 5642 5639 5636 5633 5630 5628 5625 5625 5623 5619 5616 5614 5611 5608 5605 5603 5600 5597 5594
5673 5669 5665 5664 5663 5662 5660 5657 5654 5651 5649 5647 5645 5643 5642 5640 5638 5635 5633 5631 5629 5625 5622 5619 5617 5615 5612 5611 5608 5604 5601 5598 5596 5593 5590 5587 5584 5581
5664 5659 5655 5654 5653 5651 5649 5646 5643 5641 5639 5636 5634 5631 5629 5627 5625 5623 5621 5619 5617 5613 5610 5608 5606 5604 5601 5599 5596 5593 5589 5586 5582 5580 5577 5574 5571 5568
5655 5650 5647 5645 5643 5640 5637 5635 5633 5630 5627 5625 5622 5619 5616 5614 5613 5612 5610 5607 5605 5602 5599 5596 5594 5592 5590 5587 5584 5581 5578 5574 5570 5567 5564 5561 5558 5555
5645 5641 5637 5635 5632 5628 5625 5623 5620 5617 5614 5612 5609 5606 5605 5603 5601 5599 5597 5595 5593 5590 5587 5584 5582 5580 5578 5576 5573 5569 5565 5562 5558 5554 5551 5548 5545 5543
5635 5631 5627 5623 5620 5616 5613 5609 5607 5605 5602 5599 5597 5595 5593 5591 5588 5586 5583 5582 5579 5577 5575 5572 5570 5567 5564 5562 5561 5558 5554 5550 5546 5542 5539 5537 5534 5530
5626 5619 5614 5610 5607 5603 5600 5597 5595 5592 5590 5587 5585 5582 5580 5578 5575 5573 5570 5568 5566 5563 5561 5559 5558 5557 5554 5550 5544 5543 5541 5538 5534 5530 5527 5525 5523 5519
5614 5608 5603 5599 5595 5591 5588 5585 5582 5579 5577 5575 5573 5570 5567 5565 5563 5560 5557 5555 5553 5550 5548 5545 5544 5543 5542 5539 5533 5528 5526 5524 5522 5519 5516 5513 5511 5508
5600 5596 5591 5587 5583 5580 5577 5574 5571 5569 5566 5563 5560 5558 5555 5553 5550 5547 5544 5541 5539 5537 5535 5533 5531 5528 5527 5523 5520 5516 5512 5510 5509 5507 5504 5501 5499 5496
5588 5584 5580 5576 5573 5570 5567 5563 5560 5557 5555 5552 5549 5546 5543 5541 5538 5535 5532 5528 5526 5525 5523 5520 5516 5513 5511 5510 5508 5506 5501 5498 5495 5494 5492 5491 5489 5487
5578 5574 5570 5566 5563 5559 5556 5553 5550 5547 5544 5541 5538 5535 5532 5530 5527 5524 5521 5518 5515 5513 5510 5507 5505 5503 5501 5500 5497 5494 5491 5488 5485 5483 5480 5478 5477 5477
5568 5564 5560 5556 5552 5548 5545 5542 5540 5537 5533 5530 5527 5524 5521 5519 5515 5512 5509 5507 5504 5501 5499 5497 5494 5491 5489 5487 5485 5483 5481 5479 5477 5475 5472 5469 5466 5464